Regional Weather Roundup
Issued by NWS

Home | Current Version | Previous Version | Graphics & Text | Print | Product List | Glossary Off
Versions: 1 2 3 4 5 6 7 8 9 10 11 12 13 14 15 16 17 18 19 20 21 22 23 24 25 26 27 28 29 30 31 32 33 34 35 36 37 38 39 40 41 42 43 44 45 46 47 48 49 50

000
ASUS43 KMKX 180510
RWRWI

WISCONSIN REGIONAL WEATHER ROUNDUP
NATIONAL WEATHER SERVICE MILWAUKEE/SULLIVAN WI
1100 PM CST SAT FEB 17 2018

NOTE: "FAIR" INDICATES FEW OR NO CLOUDS BELOW 12,000 FEET WITH NO
SIGNIFICANT WEATHER AND/OR OBSTRUCTIONS TO VISIBILITY.

WIZ001-002-006>008-014>016-023>028-180600-
NORTHWEST WISCONSIN

CITY           SKY/WX    TMP DP  RH WIND       PRES   REMARKS
SUPERIOR ARPT  FAIR      17   4  58 W3        30.03R
ASHLAND        FAIR      19   6  57 W9        30.01R WCI   8
HAYWARD        FAIR      20   7  57 VRB5      30.00R WCI  13
SIREN          FAIR      18   5  57 W6        30.05R WCI  10
CUMBERLAND     FAIR      16   5  62 W6        30.01S WCI   7
RICE LAKE      FAIR      18   7  61 W7        30.04R WCI   9
CHETEK         FAIR      20   8  60 W5        30.04R WCI  13
LADYSMITH      FAIR      20   9  64 W8        30.02R WCI  10
EAU CLAIRE     FAIR      19   7  59 W5        30.05R WCI  12
MENOMONIE      FAIR      23   8  52 W5        30.05S WCI  17
NEW RICHMOND   FAIR      15   5  64 W5        30.06R WCI   7
OSCEOLA        FAIR      17   6  62 CALM      30.09R
$$

WIZ003>005-009-010-017-018-180600-
NORTH CENTRAL WISCONSIN

CITY           SKY/WX    TMP DP  RH WIND       PRES   REMARKS
MANITOWISH WTR FAIR      18   8  64 W8        29.93R WCI   8
ARBOR VITAE    FAIR      22  11  62 W5        29.93R WCI  15
WOODRUFF       FAIR      22  11  62 W5        29.93R WCI  15
RHINELANDER    FAIR      15  12  88 W7        29.93R WCI   5
EAGLE RIVER    FAIR      20   9  61 NW6       29.91R WCI  12
LAND O LAKES   FAIR      20   9  63 W7        29.92R WCI  11
PHILLIPS       FAIR      20   9  62 W6        29.96R WCI  13
TOMAHAWK       FAIR      18  15  87 W5        29.96R WCI  11
MEDFORD        FAIR      17  11  77 W7        29.98R WCI   8
MERRILL        FAIR      17  15  90 W8        29.98R WCI   7
$$

WIZ029-030-035-036-043>047-180600-
CENTRAL WISCONSIN

CITY           SKY/WX    TMP DP  RH WIND       PRES   REMARKS
WAUSAU         FAIR      22  16  78 W12       29.98R WCI  10
MOSINEE        NOT AVBL
MARSHFIELD     FAIR      19  17  92 W8        30.00R WCI   9
STEVENS POINT  FAIR      22  20  95 W8        30.02R FOG     WCI  12
WAUPACA        FAIR      26  21  82 W8        30.03R WCI  17
WAUTOMA        FAIR      22  19  89 W6        30.05R WCI  14
WISC RAPIDS    FAIR      20  16  84 W6        30.05R WCI  12
CAMP DOUGLAS   FAIR      21  18  88 W7        30.05R WCI  12
$$

WIZ011>013-019>022-031-037>040-048>050-180600-
NORTHEAST WISCONSIN

CITY           SKY/WX    TMP DP  RH WIND       PRES   REMARKS
ANTIGO         FAIR      19  17  94 W8        29.95R WCI   8
SHAWANO        FAIR      25  21  83 SW5       30.00R WCI  20
OCONTO         FAIR      24  19  83 W7        30.01R WCI  16
STURGEON BAY   FAIR      25  20  81 W13       29.99R WCI  14
GREEN BAY      FAIR      23  18  81 SW6       30.02R WCI  16
MANITOWOC      FAIR      25  21  85 W10       30.04R WCI  15
APPLETON       CLEAR     23  18  80 W9        30.00R WCI  13
CLINTONVILLE   FAIR      24  19  82 W8        30.01R WCI  15
OSHKOSH        FAIR      24  20  84 SW5       30.03R WCI  18
$$

WIZ032>034-041-042-053>061-180600-
SOUTHWEST WISCONSIN

CITY           SKY/WX    TMP DP  RH WIND       PRES   REMARKS
LA CROSSE      FAIR      25  17  72 SW6       30.10R WCI  18
SPARTA         FAIR      12  11  95 CALM      30.09R
VIROQUA        FAIR      22  21  98 SW8       30.07R WCI  12
BOSCOBEL       FAIR      24  21  88 SW6       30.12R WCI  17
PRAIRIE DU CHI FAIR      25  20  84 NW6       30.12S WCI  18
PLATTEVILLE    FAIR      21  21 100 W3        30.10S
$$

WIZ056-057-062-063-064-067-068-180600-
SOUTH CENTRAL WISCONSIN

CITY           SKY/WX    TMP DP  RH WIND       PRES   REMARKS
REEDSBURG      FAIR      24  22  91 W3        30.07R
BARABOO/DELLS  FAIR      25  22  85 W9        30.06R WCI  16
LONE ROCK      FAIR      20  19  96 CALM      30.10R
MINERAL POINT  FAIR      25  25 100 W6        30.08R WCI  18
MADISON        FAIR      23  19  85 SW3       30.08R
MIDDLETON      FAIR      26  22  87 W7        30.08R WCI  18
WATERTOWN      FAIR      24  23  93 SW3       30.07F
MONROE         FAIR      27  23  86 W12       30.08S WCI  16
JANESVILLE     FAIR      27  27 100 SW3       30.10R
$$

WIZ051-052-058>065-066-070>072-180600-
SOUTHEAST WISCONSIN

CITY           SKY/WX    TMP DP  RH WIND       PRES   REMARKS
MILWAUKEE      FAIR      29  23  78 W13G28    30.07R WCI  19
WAUKESHA       FAIR      25  21  86 W10       30.08S WCI  15
MILWAUKEE/TIMM FAIR      28  19  69 W10       30.08S WCI  19
RACINE         CLOUDY    29  23  78 W15G22    30.10R WCI  18
BURLINGTON     MOCLDY    26  21  80 W8        30.09S WCI  18
KENOSHA        MOCLDY    28  22  78 W18G26    30.09R WCI  15
FOND DU LAC    FAIR      25  18  74 SW7       30.05R WCI  17
SHEBOYGAN      FAIR      25  21  85 W10       30.05R WCI  15
WEST BEND      FAIR      27  23  86 W10       30.05S WCI  17
JUNEAU         FAIR      21  19  91 SW6       30.07S WCI  13
$$

LSZ147-162-180600-
LAKE SUPERIOR

STATION/POSITION TIME  TEMP    WIND        PRES    WAVE
                       AIR SEA DIR/SP/G            HT/PER
                 (UTC) (F)     (DEG/KT/KT) (MB)    (FT/S)
DEVILS ISLAND    0500   21     290/ 19/ 27 1016.5R
SAXON HARBOR     0440   23     280/  5/ 10 1015.2R
$$

LMZ867-665-643>646-180600-
LAKE MICHIGAN

STATION/POSITION TIME  TEMP    WIND        PRES    WAVE
                       AIR SEA DIR/SP/G            HT/PER
                 (UTC) (F)     (DEG/KT/KT) (MB)    (FT/S)
NORTHPORT PIER   0440   24                 1014.6R
KEWAUNEE LAKESHO 0442   26     260/  8/ 11 1015.3R
SHEBOYGAN LAKESH 0500   27     260/ 10/ 13 1018.4R
PORT WASHINGTON  0430   28     260/  7/ 14 1019.0R
MILWAUKEE LAKESH 0450   29     280/ 16/ 19   N/A
KENOSHA   LAKESH 0500   28     280/ 13/ 18 1019.3
$$

TC  - TEMPERATURE IN CELSIUS
VSB - VISIBILITY IN STATUTE MILES
WCI - WIND CHILL INDEX
HX  - HEAT INDEX




USA.gov is the U.S. government's official web portal to all federal, state and local government web resources and services.